カタログに戻る

LVM3 CUS R/B

運用中VLEO
NORAD 67233·ROCKET BODY·🇮🇳 India

打ち上げ Dec 24, 2025 から Satish Dhawan Space Centre

Loading…

次のパス (今後24時間)

TLE

最新Source: Space-Track

元期: Sep 14, 2026, 02:08 UTC

1 67233U 25309B   26257.08892794  .00003877  00000-0  17813-3 0  9997
2 67233  52.9184 276.8738 0012016  76.7796 283.4538 15.22698295 40180

AllMySatでLVM3 CUS R/Bをリアルタイム追跡

Download on the App Store